Regional Weather Roundup
Issued by NWS

Home | Current Version | Previous Version | Text Only | Print | Product List | Glossary Off
Versions: 1 2 3 4 5 6 7 8 9 10 11 12 13 14 15 16 17 18 19 20 21 22 23 24 25 26 27 28 29 30 31 32 33 34 35 36 37 38 39 40 41 42 43 44 45 46 47 48 49 50

000
ASUS43 KLSX 282310
RWRMO

WEATHER SUMMARY FOR MISSOURI
NATIONAL WEATHER SERVICE SPRINGFIELD MO
600 PM CDT THU APR 28 2016

NOTE: "FAIR" INDICATES FEW OR NO CLOUDS BELOW 12,000 FEET WITH NO
       SIGNIFICANT WEATHER AND/OR OBSTRUCTIONS TO VISIBILITY.
       CURRENT SKY AND/OR WEATHER CONDITIONS ARE NOT AVAILABLE FOR
       CHILLICOTHE AND FARMINGTON.

MOZ001>031-035>038-043-044-053-054-290000-
...NORTHERN AND WESTERN MISSOURI...

CITY           SKY/WX    TMP DP  RH WIND       PRES   REMARKS
KANSAS CTY INT CLOUDY    55  46  71 W6        30.01R
KANSAS C DTWN  MOSUNNY   58  46  64 NW8       29.99R
LEE`S SUMMIT   MOSUNNY   60  47  61 NW12      29.99R
ST JOSEPH      CLOUDY    55  46  71 N8        30.00R
CHILLICOTHE      N/A     57  46  66 W7        30.00R
KIRKSVILLE     CLOUDY    58  46  64 W10       29.96R

$$
MOZ066>068-077>081-088>096-101>105-290000-
...SOUTHWEST MISSOURI...

CITY           SKY/WX    TMP DP  RH WIND       PRES   REMARKS
SPRINGFIELD    SUNNY     71  45  39 NW6       29.97R
JOPLIN         SUNNY     70  46  42 N6        29.98R
BRANSON        MOSUNNY   75  41  29 NW6       29.98R

$$
MOZ032>034-039>042-045>050-055>058-069>072-290000-
...CENTRAL MISSOURI...

CITY           SKY/WX    TMP DP  RH WIND       PRES   REMARKS
COLUMBIA       PTSUNNY   63  50  62 NW10      29.98R
JEFFERSON CITY SUNNY     66  50  56 NW9       29.96R
ROLLA          SUNNY     70  47  43 W8        29.94R
SEDALIA        CLOUDY    65  52  62 N9        29.98R
WHITEMAN AFB   PTSUNNY   62  52  68 N12       29.97R
WARRENSBURG    MOSUNNY   63  50  63 NW10      29.98R
OSAGE BEACH    MOSUNNY   70  45  40 W7        29.97R

$$
MOZ051-052-059>065-290000-
...EAST CENTRAL MISSOURI...

CITY           SKY/WX    TMP DP  RH WIND       PRES   REMARKS
ST LOUIS INTL  MOSUNNY   72  49  44 NW12      29.93R
SPIRIT OF STL  MOSUNNY   71  50  47 W9        29.92R
ST CHARLES     SUNNY     69  52  54 NW10      29.92R

$$
MOZ072>076-082>087-097>100-106>115-290000-
...SOUTH CENTRAL AND SOUTHEAST MISSOURI...

CITY           SKY/WX    TMP DP  RH WIND       PRES   REMARKS
CAPE GIRARDEAU PTSUNNY   78  47  33 W9        29.91R
FARMINGTON     SUNNY     76  42  29 W14       29.94R
POPLAR BLUFF   SUNNY     79  48  33 SW8       29.91S
WEST PLAINS    SUNNY     76  40  27 NW6       29.96S

$$




USA.gov is the U.S. government's official web portal to all federal, state and local government web resources and services.